• în România
  • Lista ţărilor
  • Pe 7 zile
  • Temperatura apei
  • Hartă satelitară
  • Meteo pe hartă
  • Widget-uri
  • user-avatar
    Intrare

    Meteo pe oră la Sankt Polten

    Astăzi, 29 Martie, Miercuri

    Timp Temperatura Precipitaţii Vânt Presiune Umiditate
    00:00 +8°C° 0 mm 2 m/s 740 mmHg 88%
    01:00 +8°C° 0 mm 2 m/s 741 mmHg 89%
    02:00 +8°C° 0 mm 2 m/s 741 mmHg 88%
    03:00 +8°C° 0 mm 2 m/s 741 mmHg 88%
    04:00 +8°C° 0 mm 2 m/s 741 mmHg 88%
    05:00 +9°C° 0 mm 2 m/s 741 mmHg 86%
    06:00 +9°C° 0 mm 2 m/s 741 mmHg 84%
    07:00 +10°C° 0 mm 2 m/s 742 mmHg 78%
    08:00 +13°C° 0 mm 2 m/s 742 mmHg 74%
    09:00 +14°C° 0 mm 3 m/s 742 mmHg 69%
    10:00 +17°C° 0 mm 3 m/s 742 mmHg 65%
    11:00 +17°C° 0 mm 4 m/s 742 mmHg 62%
    12:00 +18°C° 0 mm 4 m/s 741 mmHg 59%
    13:00 +19°C° 0 mm 5 m/s 741 mmHg 57%
    14:00 +17°C° 0 mm 5 m/s 741 mmHg 58%
    15:00 +17°C° 0 mm 5 m/s 741 mmHg 60%
    16:00 +17°C° 0 mm 5 m/s 740 mmHg 62%
    17:00 +15°C° 0 mm 4 m/s 741 mmHg 70%
    18:00 +13°C° 0 mm 3 m/s 741 mmHg 78%
    19:00 +11°C° 0 mm 3 m/s 741 mmHg 86%
    20:00 +11°C° 0 mm 3 m/s 741 mmHg 87%
    21:00 +10°C° 0 mm 3 m/s 742 mmHg 89%
    22:00 +10°C° 0 mm 3 m/s 742 mmHg 90%
    23:00 +9°C° 0 mm 2 m/s 742 mmHg 91%

    Mâine, 30 Martie, Joi

    Timp Temperatura Precipitaţii Vânt Presiune Umiditate
    00:00 +9°C° 0 mm 2 m/s 743 mmHg 92%
    01:00 +9°C° 0 mm 2 m/s 743 mmHg 93%
    02:00 +9°C° 0 mm 2 m/s 743 mmHg 93%
    03:00 +9°C° 0 mm 2 m/s 743 mmHg 93%
    04:00 +9°C° 0 mm 2 m/s 743 mmHg 93%
    05:00 +9°C° 0 mm 2 m/s 743 mmHg 92%
    06:00 +9°C° 0 mm 2 m/s 743 mmHg 91%
    07:00 +10°C° 0 mm 2 m/s 743 mmHg 90%
    08:00 +12°C° 0 mm 2 m/s 743 mmHg 84%
    09:00 +14°C° 0 mm 2 m/s 743 mmHg 78%
    10:00 +15°C° 0 mm 2 m/s 744 mmHg 72%
    11:00 +16°C° 0,1 mm 2 m/s 743 mmHg 69%
    12:00 +17°C° 0,1 mm 2 m/s 743 mmHg 66%
    13:00 +17°C° 0,1 mm 2 m/s 743 mmHg 63%
    14:00 +17°C° 0,1 mm 2 m/s 743 mmHg 63%
    15:00 +18°C° 0,1 mm 1 m/s 742 mmHg 64%
    16:00 +18°C° 0,1 mm 1 m/s 742 mmHg 64%
    17:00 +15°C° 0 mm 1 m/s 742 mmHg 73%
    18:00 +12°C° 0 mm 1 m/s 742 mmHg 82%
    19:00 +9°C° 0 mm 0 m/s 742 mmHg 91%
    20:00 +10°C° 0 mm 1 m/s 742 mmHg 91%
    21:00 +10°C° 0 mm 1 m/s 742 mmHg 91%
    22:00 +10°C° 0 mm 1 m/s 742 mmHg 92%
    23:00 +10°C° 0 mm 1 m/s 742 mmHg 92%

    Poimâine, 31 Martie, Vineri

    Timp Temperatura Precipitaţii Vânt Presiune Umiditate
    00:00 +10°C° 0 mm 1 m/s 742 mmHg 92%
    01:00 +10°C° 0 mm 1 m/s 742 mmHg 93%
    02:00 +9°C° 0 mm 1 m/s 742 mmHg 93%
    03:00 +9°C° 0 mm 1 m/s 741 mmHg 94%
    04:00 +9°C° 0 mm 1 m/s 741 mmHg 95%
    05:00 +9°C° 0 mm 1 m/s 741 mmHg 94%
    06:00 +10°C° 0 mm 1 m/s 741 mmHg 93%
    07:00 +10°C° 0 mm 2 m/s 741 mmHg 92%
    08:00 +13°C° 0 mm 2 m/s 740 mmHg 84%
    09:00 +15°C° 0 mm 2 m/s 740 mmHg 77%
    10:00 +17°C° 0 mm 2 m/s 740 mmHg 69%
    11:00 +18°C° 0 mm 3 m/s 739 mmHg 65%
    12:00 +19°C° 0 mm 3 m/s 739 mmHg 61%
    13:00 +20°C° 0 mm 3 m/s 739 mmHg 57%
    14:00 +20°C° 0 mm 3 m/s 738 mmHg 59%
    15:00 +20°C° 0 mm 3 m/s 738 mmHg 60%
    16:00 +20°C° 0 mm 3 m/s 737 mmHg 61%
    17:00 +18°C° 0 mm 3 m/s 737 mmHg 69%
    18:00 +15°C° 0 mm 2 m/s 737 mmHg 78%
    19:00 +13°C° 0 mm 2 m/s 737 mmHg 87%
    20:00 +12°C° 0 mm 2 m/s 737 mmHg 88%
    21:00 +12°C° 0 mm 2 m/s 737 mmHg 90%
    22:00 +10°C° 0 mm 2 m/s 737 mmHg 92%
    23:00 +10°C° 0 mm 2 m/s 736 mmHg 92%

    1 Aprilie, Sâmbătă

    Timp Temperatura Precipitaţii Vânt Presiune Umiditate
    00:00 +9°C° 0 mm 2 m/s 736 mmHg 93%
    01:00 +9°C° 0 mm 2 m/s 736 mmHg 94%
    02:00 +9°C° 0 mm 2 m/s 735 mmHg 94%
    03:00 +8°C° 0 mm 2 m/s 735 mmHg 94%
    04:00 +9°C° 0 mm 1 m/s 735 mmHg 95%
    05:00 +10°C° 0 mm 1 m/s 735 mmHg 93%
    06:00 +10°C° 0 mm 1 m/s 735 mmHg 92%
    07:00 +11°C° 0 mm 1 m/s 735 mmHg 90%
    08:00 +13°C° 0 mm 2 m/s 735 mmHg 82%
    09:00 +15°C° 0 mm 2 m/s 735 mmHg 74%
    10:00 +17°C° 0 mm 2 m/s 735 mmHg 66%
    11:00 +18°C° 0 mm 2 m/s 735 mmHg 62%
    12:00 +19°C° 0 mm 2 m/s 734 mmHg 58%
    13:00 +20°C° 0 mm 2 m/s 734 mmHg 54%
    14:00 +20°C° 0 mm 2 m/s 734 mmHg 54%
    15:00 +20°C° 0 mm 3 m/s 733 mmHg 54%
    16:00 +20°C° 0 mm 3 m/s 733 mmHg 55%
    17:00 +18°C° 0 mm 2 m/s 733 mmHg 64%
    18:00 +16°C° 0 mm 2 m/s 733 mmHg 74%
    19:00 +13°C° 0 mm 2 m/s 733 mmHg 83%
    20:00 +12°C° 0 mm 2 m/s 733 mmHg 85%
    21:00 +12°C° 0 mm 2 m/s 734 mmHg 86%
    22:00 +10°C° 0 mm 2 m/s 734 mmHg 87%
    23:00 +10°C° 0 mm 1 m/s 734 mmHg 87%

    2 Aprilie, Duminică

    Timp Temperatura Precipitaţii Vânt Presiune Umiditate
    00:00 +10°C° 0 mm 1 m/s 734 mmHg 88%
    01:00 +9°C° 0 mm 1 m/s 734 mmHg 88%
    02:00 +9°C° 0 mm 1 m/s 735 mmHg 88%
    03:00 +9°C° 0 mm 1 m/s 735 mmHg 88%
    04:00 +8°C° 0 mm 1 m/s 735 mmHg 88%
    05:00 +9°C° 0 mm 1 m/s 735 mmHg 85%
    06:00 +10°C° 0 mm 1 m/s 736 mmHg 81%
    07:00 +11°C° 0 mm 1 m/s 736 mmHg 78%
    08:00 +13°C° 0 mm 1 m/s 737 mmHg 73%
    09:00 +15°C° 0 mm 1 m/s 737 mmHg 68%
    10:00 +18°C° 0 mm 1 m/s 738 mmHg 63%
    11:00 +19°C° 0,1 mm 1 m/s 738 mmHg 61%
    12:00 +18°C° 0,1 mm 2 m/s 738 mmHg 59%
    13:00 +19°C° 0,1 mm 2 m/s 738 mmHg 58%
    14:00 +19°C° 0,2 mm 2 m/s 737 mmHg 59%
    15:00 +19°C° 0,2 mm 2 m/s 737 mmHg 59%
    16:00 +20°C° 0,2 mm 1 m/s 737 mmHg 60%
    17:00 +16°C° 0,1 mm 1 m/s 737 mmHg 70%
    18:00 +13°C° 0,1 mm 1 m/s 738 mmHg 80%
    19:00 +10°C° 0,1 mm 0 m/s 738 mmHg 89%
    20:00 +10°C° 0 mm 1 m/s 738 mmHg 90%
    21:00 +10°C° 0 mm 1 m/s 738 mmHg 90%
    22:00 +10°C° 0 mm 1 m/s 739 mmHg 91%
    23:00 +10°C° 0,2 mm 1 m/s 739 mmHg 91%

    3 Aprilie, Luni

    Timp Temperatura Precipitaţii Vânt Presiune Umiditate
    00:00 +10°C° 0,2 mm 1 m/s 739 mmHg 92%
    01:00 +10°C° 0,2 mm 1 m/s 739 mmHg 93%
    02:00 +10°C° 0,1 mm 1 m/s 740 mmHg 94%
    03:00 +10°C° 0,1 mm 1 m/s 740 mmHg 94%
    04:00 +9°C° 0,1 mm 1 m/s 740 mmHg 95%
    05:00 +10°C° 0,1 mm 1 m/s 740 mmHg 94%
    06:00 +11°C° 0,1 mm 1 m/s 741 mmHg 93%
    07:00 +12°C° 0,1 mm 1 m/s 741 mmHg 92%
    08:00 +14°C° 0 mm 2 m/s 741 mmHg 86%
    09:00 +15°C° 0 mm 2 m/s 741 mmHg 80%
    10:00 +16°C° 0 mm 2 m/s 742 mmHg 75%
    11:00 +17°C° 0,2 mm 2 m/s 741 mmHg 74%
    12:00 +17°C° 0,2 mm 2 m/s 741 mmHg 72%
    13:00 +17°C° 0,2 mm 2 m/s 741 mmHg 71%
    14:00 +17°C° 0,2 mm 2 m/s 741 mmHg 71%
    15:00 +17°C° 0,2 mm 2 m/s 740 mmHg 71%
    16:00 +17°C° 0,2 mm 2 m/s 740 mmHg 72%
    17:00 +15°C° 0,3 mm 2 m/s 740 mmHg 79%
    18:00 +13°C° 0,3 mm 2 m/s 740 mmHg 86%
    19:00 +11°C° 0,3 mm 1 m/s 740 mmHg 93%
    20:00 +11°C° 0,2 mm 1 m/s 740 mmHg 94%
    21:00 +10°C° 0,2 mm 1 m/s 741 mmHg 94%
    22:00 +10°C° 0,2 mm 1 m/s 741 mmHg 95%
    23:00 +10°C° 0 mm 1 m/s 741 mmHg 95%
    Arată mai mult